Regional Weather Roundup
Issued by NWS

Home | Current Version | Previous Version | Text Only | Print | Product List | Glossary Off
Versions: 1 2 3 4 5 6 7 8 9 10 11 12 13 14 15 16 17 18 19 20 21 22 23 24 25 26 27 28 29 30 31 32 33 34 35 36 37 38 39 40 41 42 43 44 45 46 47 48 49 50

000
ASUS43 KDTX 262010
RWRMI
MICHIGAN HOURLY REGIONAL WEATHER ROUNDUP
NATIONAL WEATHER SERVICE DETROIT/PONTIAC MI
400 PM EDT THU MAY 26 2016

NOTE: "FAIR" INDICATES FEW OR NO CLOUDS BELOW 12,000 FEET WITH NO
SIGNIFICANT WEATHER AND/OR OBSTRUCTION TO VISIBILITY.

MIZ047>049-052>055-059>063-066>070-074>076-081>083-262100-
SOUTHEAST LOWER MICHIGAN

CITY           SKY/WX    TMP DP  RH WIND       PRES   REMARKS
ADRIAN         FAIR      83  63  50 SW9G17    29.92F
ALMA           PTSUNNY   77  68  72 S9G20     29.89S
ANN ARBOR      FAIR      84  63  49 SW13      29.91F
BAD AXE        PTSUNNY   83  68  61 W7        29.90S
CARO           FAIR      83  64  51 S9        29.89R
DETROIT CITY   FAIR      83  64  52 S15G22    29.91F
DETROIT        CLOUDY    84  62  47 SW12      29.91F
FLINT          FAIR      87  62  43 SW12      29.90S
GROSSE ILE     FAIR      77  66  69 SE10      29.91F
HILLSDALE      FAIR      82  59  46 W9        29.93F
HOWELL         FAIR      82  60  48 S13       29.91F

CITY           SKY/WX    TMP DP  RH WIND       PRES   REMARKS
JACKSON        FAIR      83  63  50 SW14      29.90F
LAMBERTVILLE   PTSUNNY   85  64  49 S9        29.92F
LANSING        PTSUNNY   82  65  56 SW13G24   29.90F
LAPEER         PTSUNNY   85  58  40 SW10G20   29.90F
MASON          FAIR      81  62  52 SW8G16    29.91S
MONROE         PTSUNNY   84  65  53 SW13G20   29.90F
MT. CLEMENS    PTSUNNY   82  68  61 S16       29.89F
PONTIAC        CLOUDY    83  62  49 SW10      29.91F
PORT HOPE        N/A     62  59  90 E5        29.89F
PORT HURON     FAIR      82  66  57 S12       29.91F
TRI CITIES     FAIR      83  64  52 SW13      29.88F
MIDLAND        FAIR      84  66  53 S13G23    29.86F
TROY           FAIR      85  61  44 S14       29.93F
SAGINAW HB     FAIR      84  61  45 S13G20    29.87F
$$
MIZ043>046-050>051-056>058-064>065-071>073-077>080-262100-
SOUTHWEST LOWER MICHIGAN

CITY           SKY/WX    TMP DP  RH WIND       PRES   REMARKS
BATTLE CREEK   FAIR      80  65  59 SW8       29.91F
BENTON HARBOR  FAIR      84  62  47 S9        29.87S
BIG RAPIDS     PTSUNNY   79  68  69 SW12      29.88R
COLDWATER      FAIR      82  65  56 SW6       29.91F
FREMONT        FAIR      77  69  76 SW10      29.88S
HOLLAND        FAIR      81  69  67 W13       29.89F
GRAND RAPIDS   PTSUNNY   83  69  62 VRB7      29.89S
IONIA          PTSUNNY   83  64  52 SW9       29.88F
KALAMAZOO      FAIR      82  64  54 S8        29.89F
LUDINGTON      PTSUNNY   73  65  77 SW13G23   29.87R
MARSHALL       FAIR      83  64  53 SW10G18   29.90F
MOUNT PLEASANT FAIR      83  66  56 SW14      29.86F
MUSKEGON       PTSUNNY   76  64  66 SW12      29.89S
SOUTH HAVEN    FAIR      83  63  51 SW7       29.88R
$$
MIZ016>042-262100-
NORTHERN LOWER MICHIGAN

CITY           SKY/WX    TMP DP  RH WIND       PRES   REMARKS
ALPENA         PTSUNNY   84  62  47 S9        29.84F
BEAVER ISLAND  CLOUDY    65  59  80 W6        29.83S
BELLAIRE       LGT RAIN  75  68  79 CALM      29.80F
CADILLAC       FAIR      79  65  62 SW18      29.87S
CHARLEVOIX     LGT RAIN  59  56  90 NW6       29.84F
FRANKFORT      FAIR      69  63  82 SW13G22   29.84R
GAYLORD        HVY RAIN  74  65  73 S10G21    29.85F
GRAYLING       HVY RAIN  73  66  76 SW5G29    29.86F
HARBOR SPRINGS FAIR      67  60  77 SW3       29.81F
HOUGHTON LAKE  PTSUNNY   77  63  61 SW12      29.87F
MANISTEE       FAIR      82  61  47 S16G28    29.85R
OSCODA         FAIR      84  64  49 S12G21    29.86F
PELLSTON       FAIR      83  63  50 VRB7      29.81F
ROGERS CITY    PTSUNNY   81  61  50 CALM      29.83F
TRAVERSE CITY  PTSUNNY   84  63  49 SW13G22   29.78F
$$
MIZ007>008-015-262100-
EASTERN UPPER MICHIGAN

CITY           SKY/WX    TMP DP  RH WIND       PRES   REMARKS
KINROSS          N/A     72  64  78 S8        29.83F
MACKINAC ISLAN CLOUDY    60  59  98 E5        29.83S FOG
NEWBERRY       FAIR      68  63  84 S6        29.81F
S. S. MARIE    CLOUDY    69  62  78 CALM      29.83F
MUNISING         N/A     51  49  92 N12       29.81S
$$
MIZ004>006-011>014-085-262100-
CENTRAL UPPER MICHIGAN

CITY           SKY/WX    TMP DP  RH WIND       PRES   REMARKS
MANISTIQUE     PTSUNNY   57  55  92 CALM      29.80F
ESCANABA       CLOUDY    57  54  88 S3        29.81R
MENOMINEE        N/A     72  66  83 SW5       29.80
SAWYER-GWINN   TSTM      61  59  94 N12G17    29.83R
$$
MIZ001>003-009>011-084-262100-
WESTERN UPPER MICHIGAN

CITY           SKY/WX    TMP DP  RH WIND       PRES   REMARKS
IRON MOUNTAIN  PTSUNNY   67  61  81 N13       29.82R
HOUGHTON       LGT RAIN  60  57  89 W7        29.80F
COPPER HARBOR    N/A     50  48  93 N3        29.81F
IRONWOOD       PTSUNNY   66  64  94 W6        29.78S
$$

ABBREVIATIONS USED IN REMARKS
   TC - TEMPERATURE IN CELSIUS
  WCI - WIND CHILL INDEX
   HX - HEAT INDEX
  VSB - VISIBILITY





USA.gov is the U.S. government's official web portal to all federal, state and local government web resources and services.